Overview Statistics Trail Chart Weather Telemetry Raw packets
 

This is the latest recevied weather packets stored in our database for station/object DB0MOD. If no packets are shown the sender has not sent any weather packets the latest 10 day(s).

<< 1 2 3 4 >>
Time Temp. Humidity Pressure Rain* Wind** Luminosity Snow
1788597782 15.56° C 10% 1022.7 hPa 0 mm - - -
1788597482 15.56° C 10% 1022.7 hPa 0 mm - - -
1788597182 15° C 10% 1022.4 hPa 0 mm - - -
1788596882 14.44° C 10% 1022.3 hPa 0 mm - - -
1788596582 13.89° C 10% 1022.1 hPa 0 mm - - -
1788596282 13.89° C 10% 1021.9 hPa 0 mm - - -
1788595982 13.89° C 10% 1022.1 hPa 0 mm - - -
1788595382 13.89° C 10% 1022 hPa 0 mm - - -
1788595082 13.89° C 10% 1022.1 hPa 0 mm - - -
1788594782 13.89° C 10% 1022.3 hPa 0 mm - - -
1788594482 13.89° C 10% 1022 hPa 0 mm - - -
1788594182 13.89° C 10% 1021.9 hPa 0 mm - - -
1788593882 13.89° C 10% 1021.8 hPa 0 mm - - -
1788593582 13.89° C 10% 1021.9 hPa 0 mm - - -
1788593282 13.89° C 10% 1021.7 hPa 0 mm - - -
1788592982 13.33° C 10% 1021.7 hPa 0 mm - - -
1788592682 12.78° C 10% 1021.7 hPa 0 mm - - -
1788592382 12.22° C 10% 1021.7 hPa 0 mm - - -
1788592082 12.22° C 10% 1021.7 hPa 0 mm - - -
1788591782 11.67° C 10% 1021.5 hPa 0 mm - - -
1788591484 12.22° C 10% 1021.4 hPa 0 mm - - -
1788591182 12.22° C 10% 1021.4 hPa 0 mm - - -
1788590882 12.22° C 10% 1021.6 hPa 0 mm - - -
1788590582 12.22° C 10% 1021.3 hPa 0 mm - - -
1788590282 12.22° C 10% 1021.7 hPa 0 mm - - -

* Rain latest hour (hover to see other rain measurements)
** Current wind speed in m/s (hover to see current wind gust speed)